ARIANE 5 R/B

Last updated on Sun Jun 21 2026 00:02:15 GMT+0000 (Coordinated Universal Time)

1 28499U 04049H 26171.43087523 .00000409 00000+0 51609-4 0 9995 2 28499 98.2723 343.8089 0084257 18.9811 341.4511 14.85452241161041
UTC large
Height (km)
Speed (km/s)
/
Latitude / Longitude
Inclination (degrees)
Orbital Period (minutes)
Azimuth
Elevation
Range (km)
Doppler Factor

Next 0 passes for location: London (51.5072 / 0.1276)

No passes found over London.
ARIANE 5 R/B